This demonstration page uses our WeatherBlox Daily Observations layout. Learn more.

38.89511, -77.03637

Hourly Observations for October 14, 2020

Temp ( °F °C ) Dew Point ( °F °C ) Humidity (%) Winds ( mph kmh ) Pressure ( in mb ) Visibility ( mi km ) Precip ( " mm )
12:52 am 00:52 Clear 55 12.8 46 7.8 72 72 N 5 7 30.01 1016 10 16.0934 0 0
1:52 am 01:52 Clear 55 12.8 48 8.9 77 77 SSW 3 6 30.02 1017 10 16.0934 0 0
2:52 am 02:52 Clear 52 11.1 46 7.8 80 80 SSW 5 7 30.02 1017 10 16.0934 0 0
3:52 am 03:52 Clear 51 10.6 46 7.8 83 83 SW 5 7 30.02 1017 10 16.0934 0 0
4:52 am 04:52 Clear 50 10 46 7.8 86 86 SSW 6 9 30.04 1017 10 16.0934 0 0
5:52 am 05:52 Clear 50 10 46 7.8 86 86 S 5 7 30.06 1018 10 16.0934 0 0
6:52 am 06:52 Clear 50 10 46 7.8 86 86 WSW 5 7 30.06 1018 10 16.0934 0 0
7:52 am 07:52 Sunny 51 10.6 47 8.3 86 86 SSW 6 9 30.07 1018 10 16.0934 0 0
8:52 am 08:52 Sunny 56 13.3 49 9.4 77 77 SW 5 7 30.09 1019 10 16.0934 0 0
9:52 am 09:52 Mostly Sunny 60 15.6 51 10.6 72 72 S 8 13 30.1 1019 10 16.0934 0 0
10:52 am 10:52 Mostly Sunny 64 17.8 52 11.1 65 65 SSE 9 15 30.09 1019 10 16.0934 0 0
11:52 am 11:52 Partly Cloudy 67 19.4 52 11.1 59 59 SSE 7 11 30.08 1019 10 16.0934 0 0
12:52 pm 12:52 Partly Cloudy 70 21.1 45 7.2 41 41 WSW 8 13 30.05 1018 10 16.0934 0 0
1:52 pm 13:52 Partly Cloudy 73 22.8 46 7.8 38 38 S 7 11 30.03 1017 10 16.0934 0 0
2:52 pm 14:52 Partly Cloudy 72 22.2 52 11.1 50 50 SW 8 13 30.01 1016 10 16.0934 0 0
3:52 pm 15:52 Partly Cloudy 72 22.2 51 10.6 48 48 S 10 17 30.01 1016 10 16.0934 0 0
4:52 pm 16:52 Partly Cloudy 71 21.7 51 10.6 49 49 S 14 22 30 1016 10 16.0934 0 0
5:52 pm 17:52 Mostly Sunny 69 20.6 53 11.7 57 57 S 8 13 30.01 1016 10 16.0934 0 0
6:52 pm 18:52 Mostly Clear 66 18.9 52 11.1 61 61 S 9 15 30.02 1017 10 16.0934 0 0
7:52 pm 19:52 Partly Cloudy 63 17.2 53 11.7 70 70 S 7 11 30.02 1017 10 16.0934 0 0
8:52 pm 20:52 Partly Cloudy 62 16.7 53 11.7 73 73 S 8 13 30.03 1017 10 16.0934 0 0
9:52 pm 21:52 Partly Cloudy 61 16.1 52 11.1 72 72 S 6 9 30.04 1017 10 16.0934 0 0
10:52 pm 22:52 Partly Cloudy 60 15.6 53 11.7 78 78 S 7 11 30.04 1017 10 16.0934 0 0
11:52 pm 23:52 Partly Cloudy 59 15 53 11.7 81 81 S 7 11 30.03 1017 10 16.0934 0 0

Powered by AerisWeather